Regional Weather Roundup
Issued by NWS Cleveland, OH

Home | Current Version | Previous Version | Text Only | Print | Product List | Glossary On
Versions: 1 2 3 4 5 6 7 8 9 10 11 12 13 14 15 16 17 18 19 20 21 22 23 24 25 26 27 28 29 30 31 32 33 34 35 36 37 38 39 40 41 42 43 44 45 46 47 48 49 50
000
ASUS41 KCLE 201610
RWRCLE
OHIO REGIONAL WEATHER ROUNDUP
NATIONAL WEATHER SERVICE CLEVELAND, OH
1200 PM EDT SAT SEP 20 2014

NOTE: "FAIR" INDICATES FEW OR NO CLOUDS BELOW 12,000 FEET WITH NO
SIGNIFICANT WEATHER AND/OR OBSTRUCTIONS TO VISIBILITY.

OHZ001>008-015>018-024>027-034-035-043-044-201700-
   NORTHWEST OHIO

CITY           SKY/WX    TMP DP  RH WIND       PRES   REMARKS
DEFIANCE       PTSUNNY   74  58  57 SW15G23   29.98F
FINDLAY        CLOUDY    75  60  59 SW13      30.00F
TOLEDO EXPRESS PTSUNNY   73  59  61 SW10      29.98F
TOLEDO EXEC    PTSUNNY   74  58  57 SW15G26   29.99F
LIMA           PTSUNNY   75  61  61 SW10      30.03F
$$

OHZ009>014-019>023-028>033-038-089-201700-
   NORTHEAST OHIO

CITY           SKY/WX    TMP DP  RH WIND       PRES   REMARKS
CLE-HOPKINS    PTSUNNY   72  61  68 SW14      30.05F
CLE-LAKEFRONT  PTSUNNY   74  60  61 S13       30.02F
CUY CO. ARPT   PTSUNNY   73  64  73 SW12      30.05F
LORAIN-ELYRIA  PTSUNNY   75  62  64 S10       30.04F
ASHTABULA      PTSUNNY   71  60  68 SW12      30.06F
AKRON-CANTON   PTSUNNY   73  60  63 SW12      30.07F
WOOSTER        MOSUNNY   74  61  63 S14       30.07F
MANSFIELD      PTSUNNY   74  61  63 SW14      30.07S
YOUNGSTOWN     CLOUDY    71  60  68 SW12G18   30.07F
$$

OHZ042-051>053-060>062-070>072-077>081-201700-
  SOUTHWEST OHIO

CITY           SKY/WX    TMP DP  RH WIND       PRES   REMARKS
CINC-COVINGTON PTSUNNY   76  65  68 SW10G20   30.09F
CINC-LUNKEN    SUNNY     77  65  66 SW16      30.08F
HAMILTON       MOSUNNY   77  66  68 VRB7      30.08F
DAYTON         PTSUNNY   75  63  66 SW12      30.08S
WRIGHT-PAT AFB MOSUNNY   75  64  67 SW15      30.06F
DAYTON GENERAL MOSUNNY   74  64  71 SW12      30.07F
WILMINGTON     PTSUNNY   75  63  66 SW17G25   30.08F
$$

OHZ036-037-039>041-045>050-054>059-063>069-073>076-082>088-201700-
  CENTRAL AND SOUTHEAST OHIO

CITY           SKY/WX    TMP DP  RH WIND       PRES   REMARKS
COLUMBUS       CLOUDY    77  61  57 SW12      30.07F
OSU AIRPORT    MOSUNNY   76  63  64 SW14      30.06F
BOLTON FIELD   CLOUDY    75  64  69 SW14G22   30.07F
RICKENBACK AFB PTSUNNY   76  62  62 SW15G22   30.07F
NEWARK         PTSUNNY   76  62  62 SW14G20   30.07F
MARION         PTSUNNY   74  61  63 SW13      30.07S
LANCASTER      MOSUNNY   77  61  57 SW14G22   30.09F
ZANESVILLE     MOSUNNY   74  59  59 SW12      30.10F
NEW PHILLY     MOSUNNY   74  61  63 VRB5      30.09F
$$


USA.gov is the U.S. government's official web portal to all federal, state and local government web resources and services.